Location: Dannhausen
(51.8650°N, 10.1026°E)
Time: 13:23:50
(UTC+00:00)

Okean 3 Rocket - Pass Details

Date: 09 April 2020
Orbit: 616 x 644 km, 82.5° (Epoch: 27 May)

Event Time Altitude Azimuth Distance (km) Brightness Sun altitude
Rises 20:47:05 0° 348° (NNW) 2,915 8.0 -21.7°
Reaches altitude 10° 20:49:19 10° 346° (NNW) 2,007 7.0 -21.9°
Maximum altitude 20:53:45 75° 263° (W) 654 3.6 -22.3°
Enters shadow 20:54:34 57° 196° (SSW) 740 3.7 -22.4°
